Cleveland, OH

9:28 AM EST on December 17, 2017 (GMT -0500)
Cleveland-Hopkins International

Weather History for KCLE - January, 2013

Change the Weather History Date:

Saturday, January 26, 2013

  Actual Average Record
Temperature  
Mean Temperature 20 °F 28 °F  
Max Temperature 24 °F 35 °F 69 °F (1950)
Min Temperature 16 °F 22 °F -9 °F (1897)
Degree Days  
Heating Degree Days 45 37  
Month to date heating degree days 928 961  
Since 1 July heating degree days 3009 3068  
Cooling Degree Days 0 0  
Month to date cooling degree days 0 0  
Year to date cooling degree days 0 0  
Moisture  
Dew Point 17 °F    
Average Humidity 80    
Maximum Humidity 92    
Minimum Humidity 68    
Precipitation  
Precipitation T in 0.08 in 1.48 in (1952)
Month to date precipitation 1.15 2.33  
Year to date precipitation 1.15 2.33  
Snow  
Snow T in 0.70 in - ()
Month to date snowfall 4.6 15.7  
Since 1 July snowfall 20.1 34.3  
Snow Depth 3.00 in    
Sea Level Pressure  
Sea Level Pressure 30.28 in    
Wind  
Wind Speed 8 mph (WSW)    
Max Wind Speed 17 mph    
Max Gust Speed 22 mph    
Visibility 7 miles    
Events Snow    
T = Trace of Precipitation, MM = Missing Value Source: NWS Daily Summary

Daily Weather History Graph

Daily Weather History Graph

Search for Another Location

Airport or City:

Trip Planner

Search our weather history database for the weather conditions in past years. The results will help you decide how hot, cold, wet, or windy it might be!

Date:

Astronomy

Jan. 26, 2013 Rise Set
Actual Time 7:44 AM EST 5:36 PM EST
Civil Twilight 7:14 AM EST 6:06 PM EST
Nautical Twilight 6:40 AM EST 6:39 PM EST
Astronomical Twilight 6:08 AM EST 7:12 PM EST
Moon 5:30 PM EST (1/26) 7:00 AM EST (1/26)
Length of Visible Light 10h 51m
Length of Day
9h 52m
Full, 100% of the Moon is Illuminated
Jan 26
Full
Jan 26
Full
Feb 3
Last Quarter
Feb 10
New
Feb 17
First Quarter

Hourly Weather History & Observations

Time (EST) Temp. Windchill Dew Point Humidity Pressure Visibility Wind Dir Wind Speed Gust Speed Precip Events Conditions
12:44 AM 19.0 °F 11.1 °F 16.0 °F 88% 30.09 in 6.0 mi SSW 5.8 mph - 0.00 in Snow Light Snow
12:51 AM 19.0 °F 11.1 °F 16.0 °F 88% 30.13 in 7.0 mi SSW 5.8 mph - 0.00 in Snow Light Snow
1:51 AM 19.0 °F 12.3 °F 16.0 °F 88% 30.13 in 6.0 mi SSW 4.6 mph - 0.00 in   Overcast
2:27 AM 19.9 °F 12.1 °F 17.1 °F 89% 30.10 in 5.0 mi SSW 5.8 mph - 0.00 in Snow Light Snow
2:51 AM 19.9 °F 12.1 °F 17.1 °F 89% 30.14 in 5.0 mi SSW 5.8 mph - 0.00 in Snow Light Snow
3:51 AM 19.9 °F 13.4 °F 18.0 °F 92% 30.15 in 4.0 mi SW 4.6 mph - 0.00 in Snow Light Snow
4:51 AM 21.0 °F 14.6 °F 18.0 °F 88% 30.16 in 5.0 mi SW 4.6 mph - 0.00 in   Overcast
5:51 AM 21.0 °F 14.6 °F 19.0 °F 92% 30.17 in 5.0 mi SW 4.6 mph - N/A   Overcast
6:51 AM 21.9 °F 15.7 °F 19.0 °F 89% 30.19 in 4.0 mi WSW 4.6 mph - 0.00 in   Overcast
7:51 AM 23.0 °F 14.7 °F 19.9 °F 88% 30.21 in 4.0 mi West 6.9 mph - 0.00 in Snow Light Snow
8:51 AM 23.0 °F 12.4 °F 19.9 °F 88% 30.25 in 2.5 mi WNW 10.4 mph - 0.00 in Snow Light Snow
9:23 AM 23.0 °F 13.1 °F 19.0 °F 85% 30.21 in 1.8 mi West 9.2 mph - 0.00 in Snow Light Snow
9:37 AM 23.0 °F 13.1 °F 19.0 °F 85% 30.21 in 2.5 mi West 9.2 mph - 0.00 in Snow Light Snow
9:41 AM 23.0 °F 14.7 °F 19.0 °F 85% 30.21 in 3.0 mi West 6.9 mph - 0.00 in Snow Light Snow
9:48 AM 23.0 °F 12.4 °F 19.4 °F 86% 30.22 in 4.0 mi West 10.4 mph - 0.00 in Snow Light Snow
9:51 AM 23.0 °F 13.9 °F 19.0 °F 85% 30.26 in 4.0 mi West 8.1 mph - 0.00 in Snow Light Snow
10:11 AM 23.0 °F 11.1 °F 18.0 °F 81% 30.23 in 6.0 mi WNW 12.7 mph - 0.00 in Snow Light Snow
10:39 AM 24.1 °F 13.1 °F 18.0 °F 77% 30.24 in 7.0 mi West 11.5 mph - 0.00 in   Mostly Cloudy
10:51 AM 24.1 °F 13.1 °F 18.0 °F 77% 30.29 in 8.0 mi WNW 11.5 mph - 0.00 in   Overcast
11:51 AM 24.1 °F 12.5 °F 18.0 °F 77% 30.31 in 10.0 mi WNW 12.7 mph - 0.00 in Snow Light Snow
12:51 PM 24.1 °F 11.5 °F 16.0 °F 71% 30.33 in 9.0 mi WNW 15.0 mph - 0.00 in   Overcast
1:48 PM 24.8 °F 12.4 °F 17.6 °F 74% 30.30 in 10.0 mi NW 15.0 mph - N/A   Overcast
1:51 PM 24.1 °F 11.0 °F 16.0 °F 71% 30.34 in 10.0 mi WNW 16.1 mph - N/A   Overcast
2:26 PM 24.1 °F 12.5 °F 17.1 °F 75% 30.30 in 10.0 mi WNW 12.7 mph - N/A   Overcast
2:51 PM 24.1 °F 12.0 °F 16.0 °F 71% 30.35 in 10.0 mi WNW 13.8 mph 19.6 mph N/A   Overcast
3:51 PM 24.1 °F 13.1 °F 16.0 °F 71% 30.37 in 10.0 mi WNW 11.5 mph - N/A   Overcast
4:51 PM 24.1 °F 12.5 °F 15.1 °F 69% 30.40 in 10.0 mi WNW 12.7 mph - N/A   Overcast
5:51 PM 23.0 °F 13.9 °F 14.0 °F 68% 30.42 in 10.0 mi West 8.1 mph - N/A   Overcast
6:51 PM 21.0 °F 12.4 °F 15.1 °F 78% 30.44 in 10.0 mi WSW 6.9 mph - N/A   Overcast
7:51 PM 21.9 °F 13.4 °F 14.0 °F 72% 30.47 in 10.0 mi West 6.9 mph - N/A   Overcast
8:51 PM 21.0 °F 16.2 °F 14.0 °F 74% 30.45 in 10.0 mi SSW 3.5 mph - N/A   Overcast
9:51 PM 19.9 °F 12.1 °F 12.9 °F 74% 30.47 in 10.0 mi SSW 5.8 mph - N/A   Mostly Cloudy
10:51 PM 17.1 °F 10.0 °F 10.9 °F 77% 30.49 in 10.0 mi SW 4.6 mph - N/A   Mostly Cloudy
11:51 PM 19.9 °F 13.4 °F 12.9 °F 74% 30.49 in 10.0 mi South 4.6 mph - N/A   Mostly Cloudy